Location: New Plymouth
(39.0670°S, 174.0830°E)
Time: 11:07:36
(UTC+12:00)

STRAND 1 - Visible Passes

Search period start: 26 August 2019 00:00
Search period end: 05 September 2019 00:00
Orbit: 767 x 782 km, 98.5° (Epoch: 24 August)

Date Brightness Start Highest point End Pass type
(mag) Time Alt. Az. Time Alt. Az. Time Alt. Az.
26 Aug ? 19:00:41 10° NNE 19:05:51 81° ESE 19:11:07 10° S visible
26 Aug ? 20:44:16 10° WNW 20:45:37 11° W 20:46:58 10° WSW visible
27 Aug ? 18:27:15 10° NE 18:32:01 38° ESE 18:36:50 10° S visible
27 Aug ? 20:07:07 10° NNW 20:11:16 24° W 20:15:29 10° SW visible
28 Aug ? 19:32:04 10° N 19:37:05 51° W 19:42:11 10° SSW visible
29 Aug ? 18:57:55 10° NNE 19:03:05 76° ESE 19:08:19 10° S visible
29 Aug ? 20:40:57 10° WNW 20:42:48 12° W 20:44:40 10° WSW visible
30 Aug ? 18:24:33 10° NE 18:29:15 36° ESE 18:34:01 10° S visible
30 Aug ? 20:04:11 10° NNW 20:08:27 26° W 20:12:47 10° SW visible
31 Aug ? 19:29:14 10° N 19:34:18 54° W 19:39:26 10° SSW visible
01 Sep ? 18:55:09 10° NNE 19:00:18 72° ESE 19:05:32 10° S visible
01 Sep ? 20:37:45 10° WNW 20:39:59 13° W 20:42:13 10° WSW visible
02 Sep ? 18:21:50 10° NE 18:26:29 34° ESE 18:31:11 10° S visible
02 Sep ? 20:01:17 10° NNW 20:05:39 27° W 20:10:05 10° SW visible
03 Sep ? 19:26:25 10° N 19:31:30 58° W 19:36:41 10° SSW visible
04 Sep ? 18:52:24 10° NNE 18:57:32 68° ESE 19:02:44 10° S visible
04 Sep ? 20:34:38 10° WNW 20:37:10 14° W 20:39:43 10° WSW visible
